CW8826 Weather Reports


Display with metric or nautical units.
time (UTC)temp
F
wind
direction
speed
MPH
gust
MPH
rain 1hr
in
rain 24hr
in
rain mn
in
humidity
%
barometer
mb
20260509144516 59 0.0 0.0 0.00 0.00 0.00 27 1019.3
20260509143516 58 0.0 2.0 0.00 0.00 0.00 27 1019.9
20260509142516 57 68 1.0 5.0 0.00 0.00 0.00 28 1019.8
20260509141516 58 68 1.0 3.0 0.00 0.00 0.00 26 1019.7
20260509140516 59 315 1.0 4.0 0.00 0.00 0.00 26 1020.7
20260509135536 59 23 3.0 10.0 0.00 0.00 0.00 25 1020.6
20260509134517 59 23 7.0 15.0 0.00 0.00 0.00 25 1020.5
20260509133536 60 23 6.0 13.0 0.00 0.00 0.00 25 1020.0
20260509132516 60 45 7.0 14.0 0.00 0.00 0.00 24 1020.1
20260509131517 59 23 9.0 19.0 0.00 0.00 0.00 25 1019.8
20260509130516 59 45 7.0 20.0 0.00 0.00 0.00 25 1019.6
20260509125516 58 0 3.0 7.0 0.00 0.00 0.00 25 1019.6
20260509124536 57 90 2.0 7.0 0.00 0.00 0.00 26 1019.0
20260509123516 55 68 1.0 4.0 0.00 0.00 0.00 29 1018.5
20260509122516 56 0.0 2.0 0.00 0.00 0.00 30 1018.7
20260509121517 57 113 2.0 11.0 0.00 0.00 0.00 29 1018.6
20260509120516 55 113 3.0 10.0 0.00 0.00 0.00 33 1018.6
20260509115536 56 113 3.0 8.0 0.00 0.00 0.00 32 1018.5
20260509114516 57 113 2.0 4.0 0.00 0.00 0.00 30 1018.7
20260509113517 57 113 1.0 2.0 0.00 0.00 0.00 31 1018.4
20260509112516 57 113 3.0 8.0 0.00 0.00 0.00 34 1018.3
20260509111517 57 113 4.0 7.0 0.00 0.00 0.00 35 1017.9
20260509110517 57 113 2.0 6.0 0.00 0.00 0.00 35 1018.2
20260509105516 57 113 3.0 6.0 0.00 0.00 0.00 36 1018.1
20260509104516 57 113 2.0 8.0 0.00 0.00 0.00 36 1018.1
20260509103519 57 113 2.0 6.0 0.00 0.00 0.00 36 1018.0
20260509102517 57 113 3.0 11.0 0.00 0.00 0.00 36 1018.0
20260509101516 58 113 3.0 9.0 0.00 0.00 0.00 35 1017.9
20260509100516 59 113 3.0 7.0 0.00 0.00 0.00 34 1017.7
20260509095536 59 113 1.0 5.0 0.00 0.00 0.00 35 1017.6
20260509094516 59 113 4.0 7.0 0.00 0.00 0.00 34 1017.5
20260509093516 59 135 2.0 7.0 0.00 0.00 0.00 35 1017.5
20260509092517 59 113 2.0 5.0 0.00 0.00 0.00 35 1017.4
20260509091516 59 68 1.0 5.0 0.00 0.00 0.00 35 1017.4
20260509090536 59 113 2.0 8.0 0.00 0.00 0.00 36 1017.1
20260509085516 59 113 3.0 6.0 0.00 0.00 0.00 36 1017.1
20260509084516 60 90 1.0 2.0 0.00 0.00 0.00 35 1017.4
20260509083537 60 90 4.0 10.0 0.00 0.00 0.00 34 1016.9
20260509082536 61 113 6.0 13.0 0.00 0.00 0.00 32 1017.1
20260509081516 60 113 5.0 12.0 0.00 0.00 0.00 34 1016.7
20260509080516 61 90 6.0 11.0 0.00 0.00 0.00 33 1016.6
20260509075516 61 113 7.0 12.0 0.00 0.00 0.00 32 1016.5
20260509074516 60 113 6.0 10.0 0.00 0.00 0.00 33 1016.5
20260509073516 61 113 5.0 11.0 0.00 0.00 0.00 32 1016.1
20260509072517 60 113 5.0 9.0 0.00 0.00 0.00 32 1016.1
20260509071516 61 113 4.0 9.0 0.00 0.00 0.00 32 1016.4
20260509070517 62 113 2.0 4.0 0.00 0.00 0.00 31 1016.3
20260509065516 62 113 1.0 2.0 0.00 0.00 0.00 32 1016.3
20260509064537 62 113 3.0 5.0 0.00 0.00 0.00 31 1016.0
20260509063516 63 113 4.0 8.0 0.00 0.00 0.00 29 1015.8
20260509062516 63 113 4.0 8.0 0.00 0.00 0.00 29 1015.7
20260509061516 63 113 5.0 10.0 0.00 0.00 0.00 29 1015.7
20260509060516 64 113 5.0 10.0 0.00 0.00 0.00 28 1016.0
20260509055517 64 113 3.0 6.0 0.00 0.00 0.00 27 1015.9
20260509054517 63 113 2.0 5.0 0.00 0.00 0.00 28 1015.7
20260509053517 64 113 4.0 8.0 0.00 0.00 0.00 28 1015.6
20260509052517 64 135 1.0 7.0 0.00 0.00 0.00 27 1015.4
20260509051517 64 113 7.0 19.0 0.00 0.00 0.00 28 1015.3
20260509050517 64 90 9.0 16.0 0.00 0.00 0.00 27 1015.4
20260509045517 64 113 10.0 18.0 0.00 0.00 0.00 27 1015.3
20260509044517 64 113 7.0 15.0 0.00 0.00 0.00 28 1015.3
20260509043517 66 113 8.0 16.0 0.00 0.00 0.00 26 1015.5
20260509042517 65 113 10.0 17.0 0.00 0.00 0.00 26 1015.0
20260509041517 64 113 12.0 19.0 0.00 0.00 0.00 28 1015.0
20260509040516 65 113 7.0 13.0 0.00 0.00 0.00 26 1014.7
20260509035517 65 113 9.0 16.0 0.00 0.00 0.00 27 1014.5
20260509034516 65 113 8.0 15.0 0.00 0.00 0.00 27 1014.5
20260509033516 65 113 10.0 17.0 0.00 0.00 0.00 27 1014.0
20260509032517 65 113 10.0 16.0 0.00 0.00 0.00 27 1013.8
20260509031517 66 113 10.0 16.0 0.00 0.00 0.00 26 1014.1
20260509030537 65 113 9.0 14.0 0.00 0.00 0.00 28 1013.1
20260509025537 66 113 8.0 14.0 0.00 0.00 0.00 27 1013.5
20260509024516 66 113 8.0 13.0 0.00 0.00 0.00 28 1013.4
20260509023517 66 113 5.0 11.0 0.00 0.00 0.00 28 1013.0
20260509022517 67 113 8.0 12.0 0.00 0.00 0.00 26 1013.2
20260509021516 69 113 3.0 6.0 0.00 0.00 0.00 24 1013.5
20260509020516 71 113 3.0 5.0 0.00 0.00 0.00 22 1014.0
20260509015517 72 0.0 0.0 0.00 0.00 0.00 21 1014.1
20260509014517 74 158 1.0 2.0 0.00 0.00 0.00 18 1014.5
20260509013518 75 158 2.0 5.0 0.00 0.00 0.00 19 1014.6
20260509012517 75 225 2.0 4.0 0.00 0.00 0.00 18 1014.6
20260509011536 75 90 1.0 3.0 0.00 0.00 0.00 18 1014.7
20260509010517 74 68 2.0 4.0 0.00 0.00 0.00 19 1015.0
20260509005517 74 270 2.0 5.0 0.00 0.00 0.00 19 1015.1
20260509004516 74 315 2.0 4.0 0.00 0.00 0.00 19 1015.1
20260509003517 74 113 2.0 5.0 0.00 0.00 0.00 19 1015.3
20260509002516 74 315 3.0 8.0 0.00 0.00 0.00 19 1015.4
20260509001517 74 23 3.0 7.0 0.00 0.00 0.00 19 1015.5
20260509000516 74 248 4.0 7.0 0.00 0.00 0.00 20 1015.6
20260508235517 74 315 4.0 8.0 0.00 0.00 0.00 20 1015.7
20260508234516 75 0 4.0 9.0 0.00 0.00 0.00 21 1015.8
20260508233517 75 315 3.0 10.0 0.00 0.00 0.00 21 1015.8
20260508232537 75 315 2.0 5.0 0.00 0.00 0.00 19 1015.8
20260508231517 74 68 3.0 7.0 0.00 0.00 0.00 21 1015.9
20260508230516 74 270 4.0 11.0 0.00 0.00 0.00 21 1015.7
20260508225516 73 0 6.0 12.0 0.00 0.00 0.00 21 1015.9
20260508224517 74 315 4.0 9.0 0.00 0.00 0.00 21 1016.3
20260508223517 74 248 4.0 9.0 0.00 0.00 0.00 21 1016.3
20260508222517 73 23 4.0 8.0 0.00 0.00 0.00 21 1016.3
20260508221518 73 293 1.0 3.0 0.00 0.00 0.00 21 1016.3
20260508220537 73 248 4.0 8.0 0.00 0.00 0.00 20 1016.9
20260508215556 74 315 4.0 9.0 0.00 0.00 0.00 22 1016.9
20260508214516 73 315 5.0 11.0 0.00 0.00 0.00 20 1017.0
20260508213516 73 315 6.0 12.0 0.00 0.00 0.00 21 1016.8
20260508212517 72 248 4.0 11.0 0.00 0.00 0.00 21 1016.7
20260508211517 72 315 4.0 9.0 0.00 0.00 0.00 21 1016.8
20260508210516 72 315 6.0 13.0 0.00 0.00 0.00 22 1017.1
20260508205516 73 270 3.0 9.0 0.00 0.00 0.00 23 1017.1
20260508204517 72 315 6.0 15.0 0.00 0.00 0.00 22 1017.2
20260508203516 72 315 6.0 22.0 0.00 0.00 0.00 21 1017.7
20260508202516 72 270 5.0 16.0 0.00 0.00 0.00 21 1017.7
20260508201517 71 315 3.0 10.0 0.00 0.00 0.00 25 1017.6
20260508200516 71 270 3.0 8.0 0.00 0.00 0.00 23 1017.7
20260508195516 71 270 4.0 14.0 0.00 0.00 0.00 24 1017.4
20260508194516 70 270 3.0 10.0 0.00 0.00 0.00 24 1017.4
20260508193517 70 270 3.0 9.0 0.00 0.00 0.00 27 1017.2
20260508192517 69 248 6.0 10.0 0.00 0.00 0.00 26 1017.2
20260508191537 69 158 3.0 6.0 0.00 0.00 0.00 25 1017.4
20260508190517 70 315 4.0 9.0 0.00 0.00 0.00 25 1017.8
20260508185516 70 270 3.0 7.0 0.00 0.00 0.00 27 1017.9
20260508184537 69 248 5.0 12.0 0.00 0.00 0.00 25 1018.0
20260508183516 69 248 4.0 11.0 0.00 0.00 0.00 26 1018.0
20260508182516 69 315 4.0 8.0 0.00 0.00 0.00 27 1018.2
20260508181517 69 248 3.0 6.0 0.00 0.00 0.00 26 1018.2
20260508180517 68 248 3.0 8.0 0.00 0.00 0.00 30 1018.1
20260508175517 68 248 4.0 9.0 0.00 0.00 0.00 29 1018.5
20260508174517 67 225 2.0 7.0 0.00 0.00 0.00 32 1018.3
20260508173516 68 225 2.0 5.0 0.00 0.00 0.00 30 1018.6
20260508172517 68 338 3.0 6.0 0.00 0.00 0.00 31 1018.3
20260508171517 67 225 4.0 8.0 0.00 0.00 0.00 28 1018.2
20260508170516 67 270 2.0 4.0 0.00 0.00 0.00 29 1018.1
20260508165517 66 270 1.0 3.0 0.00 0.00 0.00 30 1017.8
20260508164517 67 315 2.0 4.0 0.00 0.00 0.00 31 1017.9
20260508163536 66 315 2.0 5.0 0.00 0.00 0.00 33 1018.0
20260508162536 66 315 2.0 5.0 0.00 0.00 0.00 32 1018.2
20260508161517 66 315 3.0 6.0 0.00 0.00 0.00 32 1018.3
20260508160516 66 113 2.0 4.0 0.00 0.00 0.00 32 1018.2
20260508155537 65 113 1.0 2.0 0.00 0.00 0.00 31 1018.2
20260508154516 65 113 1.0 4.0 0.00 0.00 0.00 33 1018.3
20260508153516 64 113 1.0 2.0 0.00 0.00 0.00 32 1017.9
20260508152516 64 0.0 1.0 0.00 0.00 0.00 34 1018.4
20260508151516 63 0.0 0.0 0.00 0.00 0.00 35 1018.0
20260508150516 62 0.0 0.0 0.00 0.00 0.00 37 1018.0
20260508145516 61 0.0 0.0 0.00 0.00 0.00 37 1017.8